Temp
25 26 25 25 25 24 24 24 24 24 24 24 24 24 24 24 24 24 24 24 24 24 24 25 25 26 27 27 27 27 26 26 25 25 25 24 24 23 22 22 21 21 21 21 21 21 21 21 21 21 21 21 21 21 21 21 21 21 21 21 21 21 21 20 20 20 20 20 20 20 20 20 20 20 20 20 20 20 20 20 20 20 20 20 20
26 26 25 25 25 24 25 24 24 24 24 24 24 24 24 24 24 24 24 24 24 24 24 25 25 26 27 27 27 27 27 26 25 25 24 24 24 24 23 22 21 21 21 21 21 21 21 21 21 21 21 21 21 21 21 21 21 20 20 21 21 21 20 20 20 20 20 20 20 20 20 20 20 20 20 20 20 20 20 20 20 20 20 20 20
26 26 25 25 25 25 25 25 24 24 24 24 24 24 24 24 24 24 24 24 24 24 24 25 25 26 26 27 28 28 28 27 26 25 24 24 24 24 23 23 22 21 21 21 21 21 21 21 21 21 21 21 21 21 21 21 21 21 20 20 20 20 20 20 20 20 20 20 20 20 20 20 20 20 20 20 20 20 20 20 20 20 20 20 20
26 26 25 25 25 25 25 25 25 24 24 24 24 24 24 24 24 24 24 24 24 24 24 24 25 26 26 27 27 28 28 28 27 26 25 24 24 24 24 23 22 21 21 21 21 21 21 21 21 21 21 21 21 21 21 21 21 21 21 21 20 20 20 20 20 20 20 20 20 20 20 20 20 20 20 20 20 20 20 20 20 20 20 20 20
25 25 25 25 25 25 25 25 25 25 24 24 24 24 24 24 24 24 24 24 24 24 24 24 25 26 26 26 27 28 28 28 28 26 25 24 24 24 23 23 23 22 21 21 21 21 21 21 21 21 21 21 21 21 21 20 21 21 21 21 21 20 20 20 20 20 20 20 20 20 20 20 20 20 20 20 20 20 20 20 20 20 20 20 20
24 25 25 25 25 25 25 25 25 25 24 24 24 24 24 24 24 24 24 24 24 24 24 24 25 25 26 26 27 28 28 28 28 27 25 24 24 23 23 23 23 22 22 21 21 21 21 21 21 21 21 21 21 21 21 20 20 21 21 21 21 20 20 20 20 20 20 20 20 20 20 20 20 20 20 20 20 20 20 20 20 20 20 20 20
24 24 25 25 25 25 25 25 25 24 24 24 24 24 24 24 24 24 24 24 24 24 24 24 25 25 26 26 27 28 28 28 28 28 26 24 23 23 23 23 23 22 22 22 22 21 21 21 21 21 21 21 21 21 21 21 21 21 21 21 21 20 20 20 20 20 20 20 20 20 20 20 20 20 20 20 20 20 20 20 20 20 20 20 20
24 24 25 25 25 25 25 25 24 24 24 24 24 24 24 24 24 24 24 24 25 25 24 24 25 25 25 26 27 27 28 28 28 28 26 25 24 24 23 23 23 22 22 22 22 22 21 21 21 21 21 21 21 21 21 21 21 21 21 21 21 20 20 20 20 20 20 20 20 20 20 20 20 20 20 20 20 20 20 20 20 20 20 20 20
24 24 24 25 25 25 25 25 24 24 24 24 24 24 24 24 24 24 24 24 25 25 25 25 25 25 26 26 27 27 28 28 27 27 27 26 25 24 24 23 23 22 22 22 22 22 22 21 21 21 21 21 21 21 21 21 20 20 21 21 20 20 20 20 20 20 20 20 20 20 20 20 20 20 20 20 20 20 20 20 20 20 20 20 20
24 24 24 25 25 25 25 25 25 24 24 24 24 24 24 24 24 24 24 24 25 25 25 25 25 26 26 26 27 27 27 28 27 27 27 26 26 25 24 24 23 23 23 22 22 22 22 21 21 21 21 21 21 21 21 21 21 20 20 20 20 20 20 20 20 20 20 20 20 20 20 20 19 20 19 19 19 20 20 20 20 20 20 20 20
24 24 24 25 25 25 25 25 25 25 24 24 24 24 24 25 24 24 24 24 24 24 25 25 26 26 26 26 26 26 27 27 27 27 27 27 26 26 25 25 24 24 23 23 22 22 22 22 21 21 21 21 21 21 21 21 21 20 20 20 20 20 20 20 20 21 21 20 20 20 20 20 20 20 19 19 19 19 20 20 20 20 19 19 19
24 24 24 24 25 25 25 25 24 24 24 24 24 24 25 25 24 25 24 24 24 24 25 25 26 26 26 26 26 26 26 27 27 27 27 27 26 26 26 26 25 24 23 23 23 23 22 22 21 21 21 21 21 21 21 21 21 21 21 20 21 21 21 21 21 21 21 20 20 20 20 20 20 19 19 19 19 19 19 20 19 19 19 19 19
24 24 24 24 25 25 25 25 24 24 24 24 24 24 24 24 24 24 24 24 24 24 25 25 26 25 25 26 26 26 26 27 27 27 27 27 26 27 27 27 26 26 25 24 24 23 23 22 22 21 21 22 21 21 21 21 21 21 21 21 21 21 21 21 21 21 20 20 20 20 20 20 20 19 19 19 19 19 19 19 19 19 19 19 19
24 24 24 24 25 25 25 25 24 24 24 24 24 24 24 24 24 24 24 24 24 25 25 25 25 25 25 26 26 26 26 27 27 27 27 27 27 27 27 27 26 26 25 25 24 24 23 23 22 22 22 22 22 21 21 22 22 21 21 20 20 21 21 21 21 20 20 21 21 20 20 20 20 20 19 19 19 19 19 19 19 18 18 19 19
24 24 24 24 24 25 25 25 25 24 24 24 25 24 24 24 24 24 24 24 25 25 25 25 26 26 26 26 26 26 26 26 27 27 28 27 27 27 27 27 26 26 25 25 25 24 23 23 23 22 22 22 22 21 21 22 22 22 22 21 20 21 21 21 21 21 21 21 21 21 21 21 21 21 20 19 19 19 19 19 19 19 19 19 19
24 24 24 24 24 25 25 24 25 24 24 24 24 24 24 24 24 24 24 24 25 25 25 25 26 26 26 26 26 26 25 26 27 27 28 28 28 28 27 27 27 26 26 25 25 24 23 23 23 23 22 22 22 22 21 22 22 22 22 22 22 21 22 22 21 21 22 22 22 21 21 21 22 21 21 20 20 20 20 20 20 20 20 20 20
25 25 25 25 25 25 25 25 25 25 25 25 24 24 24 24 25 24 25 25 25 25 25 26 26 26 26 26 26 26 25 26 27 27 28 28 29 28 27 27 26 26 26 26 25 24 23 23 23 23 23 22 22 22 22 22 22 22 23 23 22 22 22 22 22 22 22 22 22 21 21 21 21 21 21 21 21 21 21 21 21 21 20 20 20
25 25 25 25 25 25 25 25 25 25 25 25 24 24 25 25 25 25 25 25 25 25 26 26 26 26 26 26 26 26 26 27 27 27 27 28 28 28 27 27 26 26 25 25 25 24 24 24 23 23 23 23 22 22 22 22 22 22 23 23 23 23 22 22 22 22 22 22 22 21 21 21 21 21 21 21 21 21 21 20 20 20 20 20 20
25 25 25 25 25 25 25 25 25 25 25 25 25 25 25 25 25 25 25 25 25 25 26 26 26 26 26 26 26 27 27 27 26 26 27 27 28 28 28 27 26 26 25 26 26 25 25 24 24 23 23 23 23 22 22 21 21 22 23 23 23 23 23 22 22 22 22 22 21 21 21 21 21 21 20 20 20 20 20 20 20 20 20 20 20
26 26 26 25 25 25 25 25 25 25 25 25 25 25 25 25 25 25 25 25 25 25 26 26 26 26 26 26 26 26 27 27 27 27 26 27 27 27 28 27 26 26 26 26 26 25 25 25 24 24 23 23 23 22 22 22 22 22 23 23 23 23 22 22 22 22 22 21 21 21 21 21 21 20 20 20 20 20 20 20 20 20 20 19 19
26 26 26 26 25 25 25 25 25 25 25 25 25 25 25 25 25 25 25 24 24 25 25 26 26 26 26 26 26 26 26 27 27 27 26 26 27 27 27 27 27 26 26 26 26 26 25 25 24 24 24 23 23 23 23 22 22 22 22 22 22 22 22 22 22 22 22 21 21 21 21 20 20 20 20 20 20 20 20 20 20 20 20 19 19
26 26 26 26 26 25 25 25 25 25 25 25 25 25 25 25 25 25 25 24 24 25 25 26 26 26 26 26 26 26 26 26 27 27 26 26 26 27 28 27 26 26 26 26 26 26 25 25 25 24 24 24 24 23 23 22 22 22 22 22 22 22 22 22 22 21 21 21 21 21 20 20 20 20 20 20 20 20 20 20 20 20 20 19 19
26 26 26 26 26 25 25 25 25 25 25 25 25 25 25 25 25 25 25 24 24 25 25 26 26 26 25 26 25 26 26 26 27 27 27 26 26 27 28 27 27 26 26 26 26 26 25 25 25 25 24 24 24 23 23 23 22 22 22 22 22 22 22 21 21 21 21 21 21 21 20 20 20 20 20 20 20 20 20 20 20 20 20 19 19
26 26 26 26 26 25 25 25 25 25 25 25 25 25 26 25 25 25 25 25 24 25 25 25 25 25 25 25 25 25 26 26 26 27 27 27 26 26 27 27 27 26 26 26 26 26 25 25 25 25 25 24 24 24 23 23 23 22 22 22 22 22 22 21 21 21 21 21 21 21 21 21 20 20 20 20 20 20 20 20 20 20 20 20 19
27 26 26 26 26 26 25 26 26 26 25 25 25 26 26 26 25 25 25 24 24 25 25 25 25 25 25 25 25 26 26 26 26 27 27 27 26 26 27 27 27 26 26 26 26 26 26 25 26 26 25 25 24 24 24 23 23 23 22 22 22 22 22 21 21 21 21 21 21 21 21 21 21 21 20 20 20 20 20 20 20 20 20 20 19
27 27 27 27 26 26 26 26 26 26 26 25 25 25 26 26 26 25 25 24 24 25 25 25 25 25 25 26 26 26 27 26 27 27 27 27 26 26 26 27 27 26 26 26 26 26 26 26 26 26 25 25 25 24 24 23 23 23 23 23 23 22 22 22 22 21 21 21 21 21 21 21 21 21 21 21 20 20 20 20 20 20 20 20 19
27 27 27 27 27 27 26 26 26 26 26 25 25 25 25 26 26 25 25 25 25 25 25 25 25 25 25 26 26 26 27 27 27 27 27 27 27 26 26 26 26 26 25 25 26 26 26 26 26 26 26 25 25 24 24 24 24 24 23 23 23 23 22 22 22 22 22 21 21 21 21 21 21 21 21 21 21 21 20 20 20 20 20 20 20
27 27 27 27 27 27 26 26 26 26 26 25 25 25 25 25 25 25 25 25 25 25 25 25 25 25 25 25 26 26 27 27 27 27 27 27 27 27 27 26 26 26 25 25 25 25 25 26 26 26 26 25 25 25 24 24 24 24 23 23 23 23 22 22 22 22 22 22 21 21 21 21 21 21 21 21 21 21 21 21 20 20 20 20 20
27 27 27 27 28 27 27 26 26 26 26 26 25 25 25 25 25 25 25 25 25 25 25 25 25 25 25 25 25 26 26 27 27 27 27 27 27 27 27 26 26 26 25 25 25 25 26 26 27 26 26 25 25 25 24 24 24 24 23 23 23 23 22 22 22 22 22 21 21 21 21 21 21 21 21 21 21 21 21 21 20 20 20 20 20
28 28 27 27 27 28 27 27 26 26 26 26 25 25 25 25 25 25 25 25 25 25 25 25 25 25 25 25 25 25 25 26 27 27 27 27 26 26 26 26 26 25 25 25 25 26 26 26 27 26 25 25 25 24 24 24 24 24 23 23 23 23 22 22 22 22 22 21 21 21 21 21 21 21 21 21 21 21 21 20 20 20 20 20 20
28 28 28 28 27 27 27 27 26 26 26 26 25 25 25 25 25 25 25 25 25 25 25 25 25 25 25 25 25 25 25 26 26 26 26 26 26 26 25 25 25 25 25 25 25 26 26 26 27 26 25 25 24 24 24 24 23 23 23 23 23 23 23 22 22 22 22 22 21 22 22 21 21 21 21 21 21 21 20 20 20 20 20 20 20
28 28 28 28 28 27 27 27 27 26 26 26 26 25 25 25 25 25 25 25 25 25 25 25 25 25 25 25 25 25 25 25 26 26 26 26 25 25 25 25 25 25 25 25 24 25 26 26 26 26 25 25 24 24 24 24 23 23 23 23 23 22 22 22 22 22 22 22 22 22 22 22 22 22 21 21 21 21 20 20 20 20 19 19 20
28 28 28 28 28 27 27 27 27 27 26 26 26 25 25 25 25 25 25 25 25 25 25 25 25 25 25 25 25 25 25 25 25 25 26 25 25 25 25 25 25 25 25 25 24 24 25 26 26 26 25 25 24 24 24 24 23 23 23 23 23 22 22 22 22 22 22 22 22 22 22 22 22 22 21 21 21 21 20 20 19 19 19 19 19
28 28 28 28 28 28 27 27 27 27 27 26 26 26 25 25 25 25 25 25 25 25 25 25 25 25 25 25 25 25 25 25 25 25 25 25 25 24 24 25 25 25 24 24 24 24 24 25 26 26 25 25 24 24 24 24 23 23 23 23 23 22 22 22 22 22 22 22 22 22 22 22 21 21 21 21 21 21 20 20 19 19 19 19 19
28 28 28 28 28 28 28 27 27 27 27 27 26 26 26 25 25 25 25 26 25 25 25 25 25 25 25 25 25 25 25 25 25 25 25 25 25 24 24 24 24 24 24 24 24 24 24 25 25 25 25 25 24 24 24 24 23 23 23 22 22 22 22 22 22 22 22 22 22 22 22 21 21 21 21 21 21 20 20 20 19 19 19 19 19
28 28 28 28 28 28 28 27 27 27 27 27 27 26 26 26 25 25 26 26 26 25 25 25 25 25 25 25 25 25 25 25 24 24 25 25 25 25 24 24 24 24 24 24 24 24 24 24 25 25 25 25 25 24 24 23 23 23 23 22 22 22 22 22 22 22 22 22 22 22 22 21 21 21 21 21 20 20 20 20 19 19 19 19 19
28 28 28 28 28 28 28 28 27 27 27 27 27 27 26 26 26 25 26 26 26 26 26 25 25 25 25 25 25 25 25 25 24 24 24 25 25 25 25 25 24 24 24 24 24 24 24 24 24 25 25 25 24 24 24 24 23 23 23 23 23 22 22 22 22 22 22 22 22 22 22 21 21 21 21 21 20 20 20 20 19 19 19 19 18
29 29 28 28 28 28 28 28 28 27 27 27 27 27 27 26 26 26 26 26 26 26 26 26 25 25 25 25 25 25 25 25 24 24 24 24 25 25 25 25 25 24 24 24 24 24 24 24 24 24 24 25 24 24 24 24 23 23 23 23 23 23 22 22 22 22 22 22 22 22 22 21 21 21 21 21 20 20 20 19 19 19 19 18 18
29 29 29 28 28 28 28 28 28 27 27 27 27 27 27 27 26 26 26 26 26 26 26 26 26 25 25 25 25 25 25 25 25 24 24 24 24 25 25 25 25 24 24 24 24 24 23 23 23 24 24 24 24 24 24 24 23 23 23 23 22 22 22 22 22 22 22 22 22 22 22 21 21 21 21 20 20 20 19 19 19 19 18 18 18
29 29 29 29 28 28 28 27 27 27 27 27 27 27 27 27 26 26 26 26 26 26 26 26 26 25 25 25 25 25 25 25 25 25 24 24 24 24 25 25 25 24 24 24 24 24 23 23 23 23 24 24 24 24 24 23 23 23 23 23 22 22 22 22 22 22 21 21 21 21 21 21 21 21 20 20 20 20 19 19 19 19 19 18 18
29 29 30 30 29 28 28 28 27 27 27 27 27 27 27 27 26 26 26 26 26 26 26 26 26 26 25 25 25 25 25 25 25 25 25 25 24 24 24 24 24 24 24 24 24 24 23 23 23 23 23 23 23 24 24 23 23 23 23 22 22 22 22 22 22 21 21 21 21 21 21 21 21 21 20 20 20 20 19 19 19 19 19 18 18
30 29 30 30 30 29 28 28 27 27 27 27 27 27 27 27 27 27 27 26 26 26 26 26 26 26 26 26 25 25 25 25 25 25 25 25 25 25 25 24 24 24 24 24 24 23 23 23 23 23 23 23 23 24 24 24 23 23 23 22 22 22 22 22 22 22 21 21 21 21 21 21 21 21 20 20 20 20 20 20 20 19 19 18 18
30 30 30 30 30 30 29 28 28 27 27 27 27 27 27 27 27 27 27 27 26 26 26 26 26 26 26 26 26 26 26 25 25 25 25 25 25 25 25 25 24 24 24 24 24 23 23 23 23 23 23 23 23 24 24 24 24 23 23 23 22 22 21 21 21 21 22 21 21 21 21 20 20 20 20 20 20 20 20 20 20 19 19 18 18
31 30 30 30 30 30 30 29 28 28 27 27 27 27 27 27 27 27 27 27 27 26 26 26 26 26 26 26 26 26 26 26 25 25 25 25 25 25 24 24 24 24 24 24 24 24 23 23 23 23 23 23 24 24 24 24 24 24 23 23 22 22 21 21 21 21 21 21 21 21 20 20 20 20 20 20 20 20 20 20 20 19 19 19 18
31 30 30 30 30 30 30 30 29 28 28 28 27 27 27 27 27 27 27 27 27 27 26 27 27 27 26 26 26 26 26 26 26 26 25 25 25 25 24 24 24 24 24 24 24 24 24 23 23 23 23 24 24 24 24 24 24 24 24 23 22 22 21 21 21 21 21 21 21 20 20 20 20 20 20 20 20 20 20 20 20 20 19 19 19
30 30 30 30 30 30 30 30 29 29 28 28 28 27 27 27 27 27 27 27 27 27 27 27 27 27 27 27 26 27 27 26 26 26 25 25 25 25 25 24 24 24 24 24 24 24 24 24 24 23 23 24 24 24 24 24 24 24 24 23 22 22 21 21 21 22 21 21 21 20 20 20 20 20 20 21 20 20 20 20 20 20 19 19 18
30 30 30 30 30 29 30 30 30 29 29 28 28 28 27 27 27 27 27 27 27 27 27 27 27 27 27 27 27 27 27 27 26 26 26 25 25 25 24 24 24 24 24 24 24 24 24 24 24 24 24 24 24 24 24 24 24 24 24 23 22 22 22 22 22 21 21 21 21 20 20 20 20 20 20 21 20 20 20 20 20 19 19 19 19
30 30 30 30 30 29 29 29 30 30 29 29 29 28 28 27 27 27 27 27 27 27 27 27 27 27 27 27 27 27 27 27 27 26 26 25 25 24 24 24 24 24 24 24 24 24 24 24 24 24 24 24 24 24 24 24 24 24 23 22 22 22 22 21 21 21 21 21 21 20 20 20 20 20 20 20 20 20 20 20 19 19 19 19 19
30 30 30 30 29 29 29 29 29 29 30 30 29 29 28 28 27 27 27 26 27 27 27 27 27 27 27 27 27 27 27 27 27 26 26 25 25 24 24 24 24 23 24 24 23 23 23 23 23 23 23 23 23 23 24 24 24 23 23 22 21 21 21 20 20 21 21 22 21 20 20 20 20 20 20 20 20 20 20 19 19 19 19 19 18
30 29 29 29 29 29 29 29 29 29 29 29 29 29 29 28 27 27 26 26 26 26 27 27 27 27 27 27 27 27 27 27 27 27 26 25 25 24 24 23 23 23 23 24 23 23 23 23 23 23 23 23 23 23 23 23 23 23 23 22 21 21 21 20 20 21 21 22 22 21 20 20 20 20 20 20 19 19 19 19 19 19 19 19 18
29 29 29 29 29 29 29 29 29 29 29 29 29 29 29 28 28 27 26 26 26 26 26 27 27 27 27 27 27 27 27 27 26 26 26 26 25 24 24 23 23 23 23 24 24 23 23 23 23 23 23 23 23 23 23 23 23 23 23 22 21 21 21 21 21 21 21 22 22 21 20 20 20 20 20 19 19 19 19 20 19 19 19 19 18
Height
842 843 843 843 845 846 846 846 847 848 848 848 849 849 849 849 850 850 850 850 850 851 851 851 852 851 851 850 851 851 851 851 851 853 854 855 856 857 858 859 860 861 862 862 862 863 863 864 864 865 866 867 867 867 868 868 868 868 869 870 871 871 872 873 874 874 875 875 876 876 876 876 877 877 877 878 878 878 879 879 879 879 879 879 879
842 842 843 843 844 845 846 846 847 847 848 848 849 849 849 849 850 850 850 850 850 851 851 851 851 851 850 850 850 850 850 850 850 852 854 854 855 856 858 859 860 861 862 863 863 863 863 864 865 865 866 867 867 867 867 867 868 868 869 870 871 872 873 874 874 875 875 875 876 876 876 877 877 877 877 878 878 878 879 879 879 879 879 879 878
841 842 843 844 844 845 845 846 847 847 848 848 848 849 849 850 850 850 850 850 851 851 851 851 851 851 850 850 850 850 851 851 851 852 853 854 855 856 857 859 860 861 862 863 863 864 864 864 865 866 866 867 867 867 867 867 868 869 870 871 871 872 873 874 874 875 875 875 876 876 876 877 877 877 877 878 878 878 878 878 878 878 878 878 878
841 842 843 844 845 845 846 846 847 847 847 848 848 849 849 851 851 851 851 850 851 851 851 851 851 851 851 850 850 850 850 851 851 850 852 854 855 856 856 858 860 861 862 863 863 864 864 865 865 866 866 867 867 867 867 868 869 870 870 870 871 872 872 873 874 874 875 875 876 876 876 876 876 876 877 877 877 877 877 877 877 878 878 878 878
841 842 843 844 844 845 846 846 847 847 848 848 849 849 849 850 850 850 850 850 851 851 851 851 851 851 851 850 850 850 850 850 851 850 851 854 855 856 856 858 859 861 861 862 863 863 864 864 865 866 866 867 867 867 867 868 869 870 870 870 871 872 873 873 873 874 874 875 875 875 875 876 876 876 876 877 877 877 877 877 877 877 877 877 877
840 842 843 844 844 845 846 846 847 847 848 848 849 849 849 850 850 850 850 851 851 851 851 851 851 851 851 850 849 850 850 850 851 851 851 853 855 856 857 858 860 861 861 862 863 863 863 864 865 865 866 866 866 867 867 868 869 870 870 870 871 872 873 873 873 873 874 874 874 874 875 875 875 875 876 876 876 876 876 876 876 876 876 877 877
839 841 842 843 844 844 845 846 846 847 847 848 849 849 849 849 849 850 850 851 851 851 851 851 851 851 851 850 849 850 850 850 851 853 852 854 856 856 857 858 860 861 862 862 863 863 863 864 865 865 866 866 866 867 867 868 869 870 870 870 870 872 872 872 872 873 873 874 874 874 874 874 874 875 875 875 875 875 875 875 876 876 876 876 876
839 840 841 843 843 844 845 845 846 846 847 848 848 849 849 849 849 850 850 850 850 850 850 850 851 851 851 850 850 850 850 851 852 853 853 855 856 857 858 859 860 862 862 863 863 863 863 864 865 865 865 866 866 867 867 868 869 869 869 869 870 871 871 872 872 872 872 873 873 873 873 873 873 874 874 874 874 874 874 874 874 874 875 875 875
838 839 840 842 843 844 844 845 845 846 846 847 848 849 849 849 849 849 849 849 850 850 850 850 851 851 851 850 850 850 851 851 852 853 854 855 855 857 858 858 860 861 862 862 863 863 863 864 865 865 866 866 866 866 867 867 868 869 869 869 869 870 871 871 871 871 871 872 872 872 872 872 873 873 873 873 873 873 873 873 873 873 873 874 874
837 838 839 841 842 843 843 844 845 845 846 847 847 848 849 849 849 849 849 849 849 849 849 850 850 850 851 850 850 850 851 851 852 853 854 855 855 856 857 857 859 860 861 862 863 863 863 864 864 865 866 866 866 866 866 867 867 868 869 869 869 869 870 870 870 870 870 871 871 871 871 872 872 872 872 872 872 872 872 872 872 872 872 872 872
836 837 838 840 841 842 843 843 844 844 845 846 846 847 848 848 848 848 848 848 848 848 849 849 849 850 850 851 850 850 851 851 852 853 854 855 856 857 857 858 858 859 861 861 862 863 863 864 864 865 865 866 866 866 866 866 866 867 868 868 868 868 869 869 869 869 869 870 870 870 870 870 870 871 871 871 871 871 871 871 871 871 871 872 872
834 836 837 839 840 841 841 842 843 844 844 845 845 846 847 847 847 847 847 848 848 848 849 848 848 849 850 851 851 851 851 851 852 853 854 855 856 857 857 858 859 860 861 861 862 863 863 864 864 865 865 866 866 866 866 866 866 866 867 867 867 867 868 868 868 868 868 868 869 869 869 869 869 869 870 870 870 870 870 870 870 870 871 871 871
833 834 836 837 839 840 840 841 842 843 843 844 844 845 846 846 846 847 847 847 847 847 848 848 848 849 850 851 851 851 852 852 852 852 853 854 855 856 857 857 859 860 861 861 862 863 863 864 864 865 865 865 866 866 866 865 865 866 866 866 866 867 867 867 867 867 868 868 867 868 868 868 868 868 869 869 869 869 869 869 870 870 870 870 870
832 833 835 836 837 839 839 840 841 842 842 843 844 844 845 846 846 846 846 847 847 847 847 847 848 849 849 850 851 851 852 851 852 852 853 854 854 855 856 857 858 859 860 861 862 863 863 864 865 865 865 865 865 866 866 865 865 865 865 866 866 866 866 866 867 867 867 867 867 867 867 867 867 868 868 868 868 868 869 869 869 869 869 869 869
831 832 834 835 836 838 838 839 840 841 842 842 843 844 844 845 846 846 846 846 846 846 847 846 847 848 848 850 851 852 853 852 850 851 852 852 853 854 856 856 858 859 860 861 862 863 863 864 865 865 865 865 865 866 866 865 865 865 865 865 865 865 865 866 866 866 866 866 867 867 867 867 867 867 867 868 868 868 868 868 868 868 869 869 869
830 831 832 834 835 836 837 838 839 840 841 841 842 843 844 844 845 845 845 845 846 846 846 846 847 847 847 850 849 852 857 854 850 849 850 851 851 853 855 856 858 859 860 860 861 862 863 864 865 865 865 865 865 865 866 865 865 865 865 865 865 865 865 865 866 866 866 866 867 867 867 867 867 867 867 867 868 868 868 868 868 868 868 868 868
829 830 831 832 834 835 836 837 837 838 839 840 841 842 843 843 843 844 844 845 845 845 846 846 847 846 847 849 850 854 856 852 850 850 849 850 851 852 854 856 857 859 860 861 861 862 863 863 864 865 865 864 864 865 865 865 865 865 865 865 865 865 865 865 866 866 867 867 867 867 867 868 867 868 868 868 868 868 868 868 868 868 868 868 868
828 829 830 831 832 833 835 836 836 837 838 839 840 841 841 841 842 843 844 844 844 845 845 845 846 846 847 848 849 852 851 849 852 852 851 850 850 852 854 855 857 859 860 861 861 861 861 862 863 864 865 865 864 864 865 865 865 865 865 865 865 865 865 866 866 866 867 867 867 867 868 868 868 868 868 868 868 868 868 868 868 868 868 868 868
826 827 828 830 831 832 833 834 835 836 837 838 838 839 840 840 841 842 842 843 843 844 844 845 845 846 847 847 847 848 848 849 851 853 854 853 850 852 854 854 856 858 859 860 860 860 860 861 861 862 864 865 864 864 865 865 865 865 866 866 866 866 866 866 866 867 867 867 868 868 868 868 868 868 868 868 868 868 868 868 868 868 867 867 867
824 825 827 828 829 830 831 833 834 835 835 836 837 838 839 839 840 841 841 842 842 843 843 844 845 845 846 847 848 848 848 848 849 850 853 855 853 852 853 854 855 856 858 859 860 860 860 860 861 861 863 864 864 864 864 865 865 866 866 866 866 867 867 867 867 867 867 868 868 868 868 868 868 868 868 868 868 868 868 868 868 867 867 867 867
822 823 825 826 827 829 830 831 832 833 834 834 835 837 838 838 839 839 840 841 841 842 843 843 844 845 845 846 847 848 848 849 849 849 850 854 855 852 852 853 854 856 857 857 858 859 859 860 861 861 861 863 864 863 863 864 865 865 866 866 866 867 867 867 867 867 867 868 868 868 868 868 869 869 868 868 868 868 868 868 867 867 867 867 867
820 821 823 824 826 827 828 830 831 832 833 834 835 836 836 837 838 838 839 839 840 841 842 843 843 844 845 846 847 848 848 848 849 849 850 852 854 852 851 852 853 855 856 856 857 857 858 860 860 860 860 861 862 863 863 863 864 865 866 866 866 866 867 867 867 867 868 868 868 868 868 868 869 868 868 868 868 868 868 867 867 867 867 866 866
817 819 820 822 823 825 826 828 829 830 831 832 833 834 835 836 837 837 838 839 839 840 841 842 843 844 845 846 847 847 848 848 848 849 850 851 852 852 851 851 852 854 855 856 857 857 858 859 859 859 859 860 861 862 863 863 864 864 865 865 866 866 866 866 867 867 867 868 868 868 868 868 868 868 868 868 868 867 867 867 867 867 866 866 866
814 816 818 819 821 823 824 826 827 828 829 830 831 833 833 834 835 836 837 838 838 839 840 841 842 844 845 845 846 847 848 848 848 849 849 850 851 851 850 850 851 853 854 856 856 857 857 858 859 859 859 859 859 860 862 862 863 864 864 864 865 865 865 865 866 866 867 867 867 867 868 867 867 867 867 867 867 867 867 866 866 866 866 865 865
811 813 815 817 818 820 822 823 825 826 827 829 830 831 832 833 834 835 836 837 838 838 839 840 841 843 844 845 846 847 847 847 848 848 849 849 850 850 850 850 851 852 854 854 855 857 857 857 858 858 858 858 858 859 860 861 862 862 863 863 863 864 864 865 865 865 866 866 866 866 867 866 866 866 866 866 866 866 866 866 865 865 865 865 864
808 810 812 814 816 817 819 821 822 824 825 827 828 829 830 831 832 834 835 836 837 837 838 839 841 842 843 844 845 846 846 846 847 847 847 848 849 850 850 850 850 851 852 853 854 855 855 856 856 857 858 857 858 858 859 860 860 860 861 861 862 862 863 863 864 864 865 865 865 865 865 865 865 865 865 865 865 865 865 864 864 864 864 864 863
806 808 809 812 813 814 816 818 820 821 823 825 826 827 829 830 831 832 833 834 835 836 837 838 840 841 842 843 843 844 845 845 846 846 846 847 848 849 849 850 851 852 851 852 853 853 853 853 853 854 856 856 857 857 858 859 859 859 860 860 860 861 861 862 862 863 863 864 864 864 864 864 864 864 864 864 864 864 863 863 863 863 863 862 862
803 805 807 809 811 812 814 815 818 819 821 822 824 825 827 828 829 830 832 833 834 835 836 837 838 840 841 842 842 842 843 844 845 845 845 845 846 847 848 849 851 853 853 853 852 852 852 852 852 852 854 855 855 856 856 857 858 858 859 859 859 859 860 860 861 862 862 862 863 863 863 863 863 863 863 863 863 862 862 862 862 862 861 861 861
801 802 805 807 808 810 811 813 815 817 819 820 821 823 824 826 827 828 830 831 832 833 834 835 837 838 839 840 841 841 841 842 843 843 844 845 845 846 846 847 848 850 852 853 852 850 850 851 851 851 852 853 853 854 855 856 856 857 857 858 858 858 859 859 860 860 861 861 861 861 862 862 862 862 862 862 861 861 861 861 861 861 860 860 860
798 800 802 804 806 808 809 811 813 815 816 818 819 821 822 824 825 826 828 829 830 831 833 834 835 836 837 838 839 839 840 841 842 842 842 843 844 844 845 846 847 847 848 851 850 848 848 849 849 849 850 851 852 853 854 854 855 855 856 856 857 857 858 858 858 859 859 860 860 860 860 860 860 860 860 860 860 860 860 860 860 860 859 859 859
796 797 799 801 803 805 807 808 810 812 814 815 817 819 820 822 823 825 826 827 828 829 830 832 833 835 835 837 837 837 839 839 840 841 841 841 842 843 844 845 846 846 846 847 849 847 846 847 847 848 848 849 851 852 853 853 853 854 854 855 856 856 856 857 857 857 858 858 858 858 858 858 858 859 859 859 859 859 859 859 859 858 858 858 858
793 795 796 798 800 802 804 806 807 809 811 813 814 816 818 820 821 822 823 824 826 827 828 829 831 832 833 835 835 835 837 837 838 839 839 840 841 842 843 844 844 845 845 846 847 846 845 846 846 846 847 848 849 850 851 851 852 853 853 854 854 855 855 855 855 856 856 857 857 857 857 857 857 857 857 857 857 857 857 857 857 857 857 857 856
790 792 793 795 797 799 801 803 805 806 808 810 812 813 815 817 818 820 821 822 823 824 826 827 828 830 831 832 833 833 834 835 836 837 837 838 839 840 841 842 842 843 844 844 845 844 844 845 845 845 846 846 847 848 849 850 850 851 852 852 853 853 854 854 854 854 855 855 855 855 855 855 855 856 856 856 856 856 856 856 856 856 856 856 855
786 788 790 792 794 796 797 800 802 803 805 807 809 810 812 814 815 817 819 819 821 822 823 824 825 827 828 829 831 832 832 833 834 834 835 835 836 837 839 839 840 841 842 843 843 843 844 844 844 844 845 845 845 846 848 848 849 850 850 851 851 851 852 852 852 852 852 853 853 853 854 854 854 854 854 854 854 854 854 854 854 854 854 854 854
783 785 787 788 790 792 794 796 798 800 802 803 805 807 808 810 812 813 815 816 818 819 820 821 822 824 825 826 827 829 830 830 831 832 833 833 834 834 836 837 838 839 840 841 841 842 842 842 843 843 843 844 844 845 846 847 848 848 848 849 849 850 850 851 851 851 851 851 852 852 852 852 852 853 852 852 852 852 852 852 852 852 852 852 852
779 781 783 785 787 789 791 793 794 796 798 799 801 803 804 806 808 809 811 812 814 815 816 818 819 820 821 822 823 825 827 827 828 829 830 831 831 832 833 834 835 836 837 838 839 840 840 841 841 841 841 842 843 843 844 845 846 847 847 847 848 848 849 849 850 849 849 850 850 850 850 850 850 850 851 851 851 851 850 850 850 850 850 850 850
775 777 780 782 783 785 786 788 790 792 794 795 797 799 800 802 804 805 807 808 810 811 812 814 815 816 818 818 819 821 823 824 825 826 827 828 829 829 830 831 832 833 834 835 836 837 838 838 839 839 840 840 840 841 842 843 844 844 845 846 846 846 847 848 848 848 848 848 848 849 848 848 848 848 849 849 849 849 849 848 848 848 848 848 848
771 773 775 777 779 780 782 784 786 787 789 791 793 795 797 799 800 802 803 805 806 807 809 810 812 813 814 815 816 817 818 819 821 822 824 825 826 827 827 828 829 831 832 832 833 834 835 836 836 837 837 838 838 839 840 841 842 842 843 844 844 845 845 846 846 846 846 846 846 847 847 846 846 846 846 847 847 847 847 847 847 846 846 846 846
767 769 770 772 774 776 777 779 782 783 785 787 789 791 793 795 797 799 800 801 802 804 805 807 808 809 810 812 813 814 815 816 817 819 820 822 823 824 824 825 827 828 828 829 830 831 831 832 834 834 835 835 836 836 837 838 839 840 841 841 841 842 843 844 844 845 845 845 845 845 845 844 844 844 844 845 845 845 845 845 845 844 844 844 844
762 764 766 767 769 771 773 775 777 780 781 783 785 787 789 791 793 795 796 798 799 800 802 803 805 806 807 809 810 810 811 812 814 815 816 817 819 820 821 822 823 824 825 826 827 828 828 829 830 831 832 833 833 834 835 836 836 837 838 839 839 840 840 841 842 843 844 844 844 844 844 843 843 842 842 842 842 842 843 843 843 843 842 842 842
758 760 762 764 765 767 769 771 773 775 777 778 779 781 784 787 789 791 792 794 795 797 798 800 801 802 804 805 806 806 807 808 810 811 812 813 814 815 816 818 820 820 821 822 823 824 825 826 827 828 829 829 830 831 831 832 832 833 835 836 837 838 839 839 840 841 841 842 842 842 842 842 842 841 840 840 840 840 841 841 841 841 841 841 841
753 756 758 760 762 763 765 767 769 770 772 772 774 776 778 781 784 787 788 790 792 793 794 795 797 798 799 800 801 802 803 804 805 806 808 808 809 809 811 813 814 816 817 818 819 820 821 822 822 824 824 825 826 826 827 828 829 830 832 833 834 835 837 837 837 838 839 839 840 840 841 841 841 840 839 838 838 838 838 839 839 839 839 839 839
749 751 754 756 757 759 760 762 764 765 766 767 769 771 773 776 779 781 784 785 787 789 790 790 791 793 794 795 796 798 798 798 799 800 802 804 804 805 807 808 809 811 812 814 815 816 817 818 818 819 820 820 821 822 823 824 826 827 828 829 830 832 833 834 835 835 836 837 837 838 838 839 839 838 837 837 837 836 836 836 837 837 838 838 837
745 747 749 751 753 755 756 757 758 760 760 762 764 766 768 770 773 776 778 781 782 783 784 785 786 787 789 790 791 792 792 792 793 795 796 798 800 801 803 804 806 807 808 809 810 811 812 813 814 815 815 816 818 819 820 821 822 823 824 825 827 828 830 831 831 832 833 834 835 835 835 836 836 836 835 835 835 835 835 835 835 836 836 836 836
741 742 744 746 748 750 751 752 753 754 756 758 759 761 763 765 768 770 773 775 776 778 779 780 781 782 783 785 786 786 787 788 789 790 791 793 795 797 799 801 802 803 804 805 806 807 809 809 810 810 811 813 814 815 816 818 819 820 821 822 823 824 826 827 828 830 831 832 833 833 833 833 834 834 834 834 833 833 833 833 834 835 835 834 834
736 737 739 741 743 745 746 747 748 749 751 753 754 756 757 759 762 765 767 769 770 771 772 774 776 777 778 779 780 780 782 783 783 785 786 788 791 793 795 797 797 798 800 801 802 804 805 806 806 806 808 809 810 812 813 815 815 816 817 818 819 821 823 824 826 827 828 829 830 831 831 831 832 832 832 832 832 831 831 832 833 833 833 833 833
731 732 735 736 738 740 742 743 745 745 745 747 749 750 752 754 757 760 762 764 764 765 766 768 770 771 772 773 773 774 776 777 778 779 780 783 786 788 789 790 792 793 794 795 797 799 801 802 802 803 805 806 808 809 810 811 812 813 814 815 816 818 820 822 823 824 825 826 828 829 829 829 830 831 831 831 831 830 830 830 831 831 832 832 832
728 729 731 733 734 736 738 740 741 741 741 742 743 745 747 750 753 755 757 759 760 760 761 762 764 765 767 768 768 770 771 772 773 773 775 778 781 783 784 785 786 788 789 789 791 794 796 797 799 800 802 803 804 805 806 807 808 810 811 813 814 816 817 818 820 821 822 823 824 825 826 826 827 828 829 829 829 829 829 829 829 829 830 830 830
724 726 727 729 731 732 734 735 736 736 737 738 739 740 742 745 749 751 753 755 756 756 756 758 759 759 760 761 762 764 766 767 768 768 770 773 776 778 779 780 782 783 784 785 787 790 792 793 795 797 798 800 801 802 803 804 804 806 808 809 811 812 813 815 817 819 819 819 820 821 823 824 824 825 827 828 828 827 827 827 827 827 828 828 828
720 722 724 726 728 729 729 730 731 732 733 735 736 738 739 742 744 746 748 751 752 752 752 754 754 754 754 755 756 758 759 760 762 764 766 769 771 774 775 777 779 780 779 781 784 786 788 790 792 794 795 796 798 799 800 800 801 802 803 805 807 808 810 811 813 815 815 815 816 818 820 821 822 822 824 826 826 825 825 825 825 825 825 826 826
718 720 722 723 724 725 726 727 728 729 731 733 734 735 736 739 740 742 745 747 747 747 749 751 751 751 750 751 751 752 752 755 758 760 762 765 767 769 771 774 775 774 774 777 780 781 783 785 787 789 790 792 794 796 797 797 797 798 799 801 803 805 806 807 808 810 811 812 812 814 816 818 818 820 821 823 823 823 822 822 823 823 823 823 824
Wind_Speed
9 8 7 6 5 6 5 5 5 4 5 4 3 3 2 3 3 1 2 2 3 4 2 1 0 1 1 4 9 10 10 11 11 13 13 12 10 9 7 7 9 9 9 10 10 10 10 9 9 8 8 8 8 8 7 7 7 8 8 7 6 5 4 4 3 3 3 3 3 3 3 3 2 2 1 1 1 2 2 2 3 3 3 4 4
7 7 8 6 6 6 4 6 7 4 4 4 4 4 2 2 3 1 2 2 2 3 3 1 0 1 2 1 5 9 10 11 14 15 14 13 11 11 9 7 8 8 9 9 9 9 9 9 9 8 8 8 8 7 7 7 7 8 7 7 6 6 5 4 4 3 3 3 3 3 3 3 3 3 3 3 3 3 3 3 3 4 4 4 5
6 7 7 6 7 6 4 6 6 4 3 3 4 4 2 2 2 1 1 2 1 1 3 1 1 1 2 2 3 5 7 8 14 17 14 13 12 12 11 8 8 8 8 8 8 8 8 9 9 8 8 8 7 7 7 7 7 7 7 7 6 6 6 5 5 4 4 4 4 4 4 4 4 5 5 4 4 4 5 5 5 5 5 6 6
6 7 6 7 7 6 5 5 5 3 3 3 3 3 3 2 2 1 1 2 1 1 2 1 1 1 2 2 2 3 5 4 10 18 16 13 13 12 12 9 8 8 8 8 8 8 8 8 8 8 8 8 7 7 7 7 7 7 7 7 7 7 6 6 6 5 5 5 5 4 4 4 4 5 6 6 5 6 6 6 6 6 6 7 7
7 7 5 6 7 7 6 5 4 4 4 4 3 2 2 2 1 2 3 1 1 2 2 2 1 1 2 3 2 2 5 4 7 16 18 14 13 12 12 10 9 9 9 9 9 9 9 9 9 8 8 8 8 7 7 7 6 6 6 6 7 7 6 6 7 6 6 6 5 5 5 5 5 6 6 6 7 7 7 7 7 7 7 7 7
7 8 7 5 6 7 6 5 5 4 4 5 4 3 3 3 2 1 3 1 1 2 3 3 1 1 1 4 3 1 1 4 8 11 16 15 13 12 11 9 8 8 9 9 8 9 9 9 9 9 8 8 8 8 8 7 7 6 6 6 7 6 6 6 7 6 7 6 6 6 6 6 6 6 7 7 8 8 8 8 8 8 8 8 8
7 8 8 6 6 7 6 5 5 4 4 4 3 3 3 4 3 1 2 2 2 2 4 6 3 2 2 3 2 2 4 7 6 6 16 19 15 13 10 7 7 7 8 8 8 8 8 9 9 9 8 8 8 8 8 7 7 6 6 6 6 6 6 7 7 7 7 7 7 7 7 7 7 8 8 8 9 10 10 10 10 9 8 9 9
9 9 8 6 5 6 7 5 5 5 5 4 3 4 4 4 4 3 2 2 2 2 4 6 5 3 4 3 1 2 4 8 6 7 14 15 14 12 9 8 6 7 8 8 8 8 8 8 9 8 8 8 8 7 8 7 7 7 6 7 7 6 6 7 8 7 8 8 8 8 8 8 8 9 10 10 10 11 11 12 11 10 9 10 10
11 10 9 7 6 6 7 7 6 5 5 3 3 4 5 5 5 3 3 3 2 2 4 5 5 5 3 4 2 2 3 5 7 9 8 9 12 9 9 10 7 8 9 8 7 8 10 9 8 8 7 8 8 7 8 8 8 6 6 7 7 7 7 7 8 8 8 9 9 9 9 9 9 10 10 10 11 11 11 12 12 11 10 10 11
13 11 11 9 7 6 6 7 7 6 4 4 5 4 4 5 4 3 3 2 1 1 4 4 4 6 4 2 1 3 2 5 5 7 6 6 9 7 10 13 10 10 11 10 9 9 10 9 9 8 7 7 7 7 6 6 6 6 6 7 7 7 7 8 8 9 9 9 9 10 10 11 11 10 9 9 10 10 10 10 10 10 10 10 10
14 12 12 10 8 7 6 5 7 7 5 6 6 5 5 5 3 3 3 2 1 2 4 5 4 5 5 3 2 2 4 5 6 6 6 6 7 7 10 13 11 12 12 11 10 8 8 8 9 8 7 7 6 6 5 4 5 6 6 6 7 6 6 7 8 8 8 8 9 9 10 11 11 11 9 9 9 10 10 9 9 9 10 10 11
14 13 12 11 9 7 7 6 6 7 7 6 6 6 7 6 4 4 3 2 3 4 4 6 4 5 6 5 3 2 2 3 6 8 7 6 7 7 8 10 10 12 14 13 12 9 8 8 8 7 7 7 7 6 5 4 4 5 6 6 6 5 5 5 6 6 6 6 6 7 7 8 9 9 9 9 9 9 9 9 9 9 9 10 10
14 14 13 12 11 9 9 8 7 8 8 7 5 5 6 5 4 4 3 3 3 6 5 4 5 5 6 6 6 5 3 2 5 8 9 7 8 8 7 9 9 9 12 12 11 9 8 9 9 7 7 8 8 7 6 4 4 4 5 6 5 4 3 3 3 3 3 2 3 3 3 4 5 6 6 6 7 6 6 7 7 7 7 7 8
15 15 13 13 13 11 10 10 9 9 8 7 7 6 6 5 5 5 5 5 4 5 6 5 6 7 7 6 6 6 4 3 6 8 11 9 8 8 7 9 11 10 10 11 10 10 9 9 9 7 6 7 7 7 6 4 3 4 4 5 5 4 3 2 2 2 3 3 3 3 3 2 3 3 3 3 2 3 3 4 4 4 4 4 5
16 16 15 13 13 12 12 11 10 9 8 8 8 8 8 7 7 6 5 5 5 4 6 7 5 5 7 4 3 4 1 3 7 8 13 14 10 10 8 9 11 10 10 13 13 11 11 10 8 6 5 6 7 6 5 4 3 4 4 4 5 4 4 4 4 4 4 3 4 3 3 2 2 1 1 1 1 1 1 2 2 1 2 3 4
16 16 16 15 14 14 14 14 12 10 10 10 9 9 8 8 7 6 6 5 6 5 5 7 4 1 4 1 2 4 1 4 8 9 11 14 12 12 10 9 10 7 8 12 12 10 10 10 9 7 8 7 6 5 5 4 3 4 4 3 4 4 4 4 4 4 4 4 4 4 4 3 3 4 4 4 4 3 3 3 3 3 3 3 4
17 17 16 16 16 16 15 14 13 12 12 11 10 9 8 8 8 7 7 5 6 6 5 5 3 2 3 1 1 3 1 6 7 7 6 4 8 12 10 12 11 7 8 9 11 12 10 9 9 9 9 9 5 3 4 4 3 3 3 3 4 4 4 4 4 4 4 4 4 4 4 4 4 4 4 4 4 4 5 4 4 4 4 4 4
17 17 17 16 16 16 15 14 14 13 12 11 9 8 8 8 7 7 7 5 5 7 7 5 3 2 2 1 0 1 1 8 5 2 3 4 7 15 11 13 14 8 7 7 10 14 10 8 10 9 8 9 7 4 5 3 2 2 3 3 4 4 4 4 4 4 4 3 3 3 4 4 4 4 3 4 4 4 4 4 4 4 4 4 4
18 18 18 18 17 17 17 15 14 13 12 11 9 9 8 8 7 7 7 6 6 6 7 8 7 5 4 2 3 2 0 4 1 1 1 4 5 12 12 15 14 9 8 7 10 13 10 10 13 12 9 8 8 7 7 5 3 2 3 4 4 4 4 4 4 4 3 3 3 3 3 4 4 4 4 4 4 4 4 4 4 4 5 5 5
19 19 19 19 17 18 18 16 15 13 12 10 10 10 9 8 8 8 7 7 7 6 5 7 10 8 6 5 4 1 0 1 2 4 2 1 0 3 9 15 13 10 9 10 13 13 13 12 11 11 9 7 8 10 8 6 6 5 5 6 5 5 5 4 4 3 3 2 2 2 2 3 3 4 4 4 4 4 5 5 5 5 5 6 6
20 20 20 20 19 19 18 18 16 14 12 11 10 10 9 9 9 9 9 8 8 7 5 6 9 8 10 9 5 2 3 3 1 5 3 2 1 1 4 10 10 11 8 10 15 14 11 11 10 10 9 7 9 10 6 4 5 7 7 7 6 6 6 5 5 4 3 2 2 1 1 1 2 2 2 3 4 4 5 6 6 6 6 7 7
21 21 21 21 20 19 18 18 17 15 14 12 10 11 10 10 10 10 10 9 9 8 6 6 5 6 12 13 8 4 6 5 3 5 3 2 1 3 6 8 8 11 8 7 13 14 13 12 10 12 11 9 10 9 6 4 4 5 7 8 8 8 7 7 6 5 5 4 3 2 2 1 1 2 2 3 4 5 5 6 7 7 8 8 8
22 21 22 21 21 21 19 17 16 15 15 14 12 11 10 11 11 10 10 9 10 9 7 7 4 4 9 12 11 7 7 7 6 7 6 4 4 5 6 6 6 13 12 7 8 12 14 12 9 12 14 11 10 10 9 8 7 6 8 8 7 9 8 7 7 6 6 6 5 4 4 4 4 4 4 5 6 6 7 8 8 8 9 9 9
21 21 22 21 21 22 20 18 17 16 16 15 14 12 11 11 11 11 11 11 11 10 8 8 6 6 8 10 11 9 8 9 9 6 6 7 6 3 2 2 3 11 12 8 7 9 11 10 8 11 14 13 12 11 10 11 11 10 11 10 9 10 10 9 9 8 8 7 7 6 6 6 6 7 7 8 8 9 9 10 10 10 10 11 11
21 22 22 22 22 23 22 20 19 18 17 16 15 14 12 12 12 12 13 13 13 12 11 9 8 9 9 9 11 11 10 10 10 8 6 6 4 2 1 2 3 10 12 9 9 9 10 11 9 9 14 16 13 11 12 12 12 13 13 12 11 11 11 11 10 10 9 9 9 8 8 8 8 9 9 10 10 11 11 12 12 12 12 12 13
23 23 22 22 23 24 24 22 21 19 18 17 16 15 14 13 13 13 13 14 14 13 12 11 10 11 11 10 11 11 12 12 10 10 9 9 8 5 2 2 2 8 12 11 11 10 11 14 15 13 14 14 13 14 15 12 11 14 14 13 11 10 11 11 12 12 12 11 11 11 11 11 10 11 11 11 12 12 12 12 12 12 12 13 13
25 24 23 23 23 24 24 24 22 21 20 19 18 16 16 15 14 14 14 14 15 14 13 13 12 13 13 13 12 11 12 13 12 12 11 10 12 11 7 3 3 4 8 10 11 11 11 13 18 19 16 13 12 13 12 9 9 13 16 14 11 10 10 11 12 12 13 14 14 14 13 13 13 13 13 13 13 13 13 13 12 12 12 12 12
25 25 24 24 24 25 25 24 23 22 21 21 20 18 18 18 17 16 15 14 15 15 14 14 14 14 14 15 14 13 12 12 13 13 12 9 11 14 13 9 6 2 4 6 7 10 13 13 12 16 16 16 15 13 11 9 9 11 13 13 12 12 12 12 13 13 13 14 15 16 16 16 15 14 14 15 15 14 13 13 13 13 12 12 12
24 25 24 25 24 25 25 23 23 23 22 22 22 20 19 19 19 19 18 16 16 17 16 15 15 15 16 16 17 17 13 11 12 13 12 10 10 12 13 13 10 4 3 4 5 8 13 13 10 13 17 17 17 15 14 14 13 12 12 12 12 12 13 14 14 13 14 15 16 17 17 17 17 16 16 16 15 14 14 14 14 13 13 12 12
24 23 23 25 25 25 25 24 23 23 23 22 23 22 21 20 20 20 20 18 17 18 18 16 16 16 16 17 18 20 15 11 12 12 12 13 12 10 11 13 12 9 5 3 5 8 12 14 13 14 17 16 15 14 13 14 15 14 14 13 12 13 14 15 15 15 14 15 15 16 17 17 17 17 17 16 15 15 14 14 14 13 13 13 13
26 24 23 24 26 26 26 25 24 24 24 24 23 23 22 22 21 20 21 20 19 19 19 18 17 17 18 17 19 21 18 13 13 13 12 15 16 13 11 12 13 13 10 4 3 7 11 13 12 13 17 16 13 13 13 14 15 15 15 14 13 13 15 15 15 15 15 14 14 15 16 16 17 16 16 16 15 15 15 14 14 13 13 13 13
27 27 25 25 25 26 26 26 25 25 25 25 24 24 24 23 22 20 21 22 21 21 20 19 18 18 19 19 19 22 22 18 16 16 14 14 17 16 15 14 14 14 14 9 5 6 10 12 8 10 15 15 13 13 15 15 14 14 15 16 15 15 16 16 16 16 15 15 14 14 15 15 16 16 15 15 15 15 15 15 14 13 13 13 13
27 28 28 27 26 27 27 26 26 25 26 26 25 25 26 25 23 21 21 23 24 22 21 20 20 20 20 21 20 21 22 21 19 19 17 15 17 18 17 16 17 16 16 14 10 8 9 11 9 9 12 14 15 15 14 14 14 15 15 15 15 15 15 15 16 15 14 14 14 14 14 14 14 15 15 15 15 16 16 15 14 14 13 13 13
28 28 29 30 28 27 27 28 28 27 27 28 27 26 27 27 25 23 22 23 25 24 23 23 22 21 21 22 22 21 21 23 22 21 20 18 18 20 19 19 19 18 18 17 14 11 10 11 12 12 11 11 14 16 14 13 13 14 15 15 15 15 15 13 14 14 14 14 15 14 14 13 13 14 15 16 16 17 17 16 16 15 14 14 13
29 29 29 30 30 29 29 28 29 29 28 29 29 28 28 28 28 26 24 24 26 26 25 25 25 24 23 24 24 23 22 23 23 22 21 20 20 21 21 21 21 20 19 20 17 14 12 12 13 15 14 12 12 13 13 13 13 13 14 14 14 14 14 14 14 15 14 14 14 14 14 14 14 14 15 17 18 18 18 17 16 16 15 15 14
28 30 29 30 30 31 30 30 30 31 30 31 31 30 30 30 30 29 27 26 27 28 28 27 27 27 26 26 26 26 24 24 25 24 22 22 22 22 22 22 22 21 20 21 21 17 14 14 14 15 16 16 16 15 13 13 13 14 14 13 13 13 14 14 15 15 15 14 13 13 13 14 15 16 16 18 18 18 18 18 17 16 15 15 14
28 29 30 30 31 32 33 32 31 32 32 32 33 32 31 31 31 31 30 28 28 28 29 29 29 29 28 28 28 28 27 26 26 26 25 24 23 23 23 23 23 23 21 21 23 22 17 15 15 14 15 15 16 17 17 15 13 13 14 15 15 14 14 15 15 15 16 16 15 15 15 15 15 15 16 17 16 16 16 16 16 15 15 15 15
30 29 31 32 32 33 34 34 33 33 33 33 33 33 32 31 31 31 30 30 30 30 30 30 30 31 31 30 30 30 30 29 28 28 27 26 25 24 24 24 24 24 23 20 21 24 22 19 16 14 14 14 14 14 16 17 15 14 16 17 18 18 17 15 15 15 14 15 15 15 15 15 15 15 15 15 15 15 15 14 14 14 14 14 14
31 30 31 33 34 34 34 35 34 34 34 34 34 34 33 31 31 31 30 30 30 30 30 30 31 31 32 31 31 31 32 32 31 30 29 28 27 26 25 25 24 24 24 23 21 22 23 21 19 17 16 15 15 14 15 17 17 16 15 15 17 19 20 18 17 17 14 12 12 13 14 15 14 14 13 14 14 14 14 13 13 13 12 11 11
32 31 31 31 33 34 34 35 35 34 34 35 34 34 35 33 31 31 31 30 30 30 30 30 30 31 31 31 31 32 33 33 33 32 31 30 29 28 27 26 25 25 25 24 23 22 22 21 20 19 19 17 17 17 16 17 18 17 17 16 15 14 17 19 20 18 16 14 12 11 13 14 14 13 14 14 13 13 12 11 12 12 11 10 10
32 32 31 31 31 33 34 34 35 35 35 36 36 36 36 35 33 32 31 31 30 29 29 29 30 31 31 30 31 32 33 34 35 35 33 32 32 31 30 29 28 27 26 25 25 24 22 20 19 19 19 19 19 19 18 19 20 19 18 18 17 15 13 15 17 16 15 14 13 11 11 12 12 13 13 13 11 11 11 12 13 13 12 11 12
33 32 32 31 31 32 33 33 34 35 35 36 38 39 39 38 36 33 32 32 31 30 30 30 30 31 31 31 31 32 33 34 36 37 36 35 34 34 33 33 32 30 28 26 25 25 24 22 21 20 19 19 21 21 21 21 20 19 19 18 17 16 13 12 13 14 14 13 12 11 12 12 11 11 11 12 12 12 12 12 12 13 13 12 11
34 34 33 33 32 31 32 33 34 35 36 36 38 41 42 41 39 36 33 32 32 33 32 31 32 32 33 33 32 32 34 35 37 38 39 38 37 36 34 34 34 34 32 29 27 26 25 23 22 22 21 20 21 22 22 22 21 20 21 21 19 17 14 12 11 11 13 13 13 13 14 14 13 13 12 11 11 11 11 11 10 9 9 9 9
35 34 34 35 35 33 32 33 34 34 36 37 39 41 44 44 43 40 36 34 33 34 34 34 34 33 33 34 34 33 35 37 38 39 41 41 40 38 36 35 35 35 35 34 31 29 28 26 24 24 24 22 22 23 22 22 21 21 21 21 21 19 17 15 13 12 11 12 13 14 15 15 13 13 13 11 10 11 12 13 10 7 8 10 11
36 36 36 36 36 36 34 33 35 35 35 36 39 42 44 46 46 43 39 36 35 35 36 36 35 35 35 35 34 34 35 37 39 41 42 42 42 40 38 36 35 36 37 37 35 32 31 29 26 26 26 25 24 24 23 21 21 22 21 21 21 21 19 17 16 14 11 12 14 14 15 15 12 11 12 10 8 9 11 11 11 11 13 13 12
36 37 37 36 37 38 37 35 35 36 36 36 38 42 45 47 48 47 43 39 38 37 37 38 37 37 37 36 36 37 36 36 39 41 42 43 43 42 41 39 38 37 37 38 37 35 33 31 29 28 28 26 25 24 23 22 22 22 22 22 22 21 19 18 16 13 12 13 15 14 13 13 11 11 12 9 7 8 10 12 13 13 12 11 11
36 37 36 37 36 37 39 37 35 35 36 38 39 41 45 47 49 50 47 42 39 39 39 39 39 39 39 38 38 38 37 36 38 41 42 43 43 43 43 43 42 39 39 40 40 38 36 34 31 29 28 28 27 25 23 22 22 21 20 20 21 19 17 16 15 14 14 16 18 15 13 12 11 10 10 9 7 7 9 10 10 9 10 12 14
33 34 35 36 36 35 36 37 36 35 34 36 39 41 44 46 48 50 50 45 40 39 39 38 38 39 39 40 39 39 38 38 39 41 43 42 42 42 43 43 43 41 40 42 42 41 40 37 34 31 28 27 26 25 25 23 23 22 19 17 17 16 15 14 13 14 16 19 21 20 17 14 13 11 9 8 7 7 8 9 9 12 14 14 13
30 32 33 33 34 34 34 36 38 38 36 35 37 40 42 44 47 50 51 46 41 39 38 38 39 39 40 41 41 39 39 39 40 42 43 43 41 40 41 41 40 39 40 40 40 41 42 40 37 34 30 27 25 24 25 25 25 24 21 19 18 16 15 13 11 13 18 20 21 24 21 15 13 11 9 8 9 9 9 10 13 16 15 12 11
31 30 30 31 32 33 34 35 37 39 37 35 35 37 39 42 46 50 51 47 42 40 38 37 37 39 40 42 42 41 41 41 41 42 43 44 42 38 38 39 37 37 39 38 35 37 41 41 38 36 33 31 28 26 25 26 27 26 25 23 20 18 17 16 14 16 19 17 17 23 21 14 11 11 9 8 9 10 9 10 11 12 11 10 11
31 29 28 28 29 31 32 34 35 36 36 34 34 35 36 38 43 48 48 44 42 41 38 36 36 37 38 40 43 45 45 42 41 41 43 45 43 40 38 36 34 37 41 38 33 34 38 41 40 38 35 33 32 29 27 27 28 29 28 27 24 22 21 21 20 17 13 10 12 20 21 16 13 12 9 7 6 6 6 7 8 9 10 10 10
Wind_Direction
172 165 168 173 151 139 142 147 142 156 161 139 130 134 126 99 96 84 38 81 90 61 65 120 98 165 195 158 146 140 142 155 159 146 137 129 122 131 146 161 169 169 166 162 160 160 160 162 162 161 165 164 163 168 171 174 180 184 183 175 174 176 176 178 180 194 201 187 194 195 196 213 220 226 253 274 290 309 312 317 322 324 328 328 326
174 158 158 150 140 150 143 147 156 160 154 151 154 148 130 105 111 97 43 58 77 81 102 107 233 217 272 240 152 147 147 155 159 152 141 132 122 123 132 147 162 169 172 168 165 165 166 166 168 169 170 168 168 176 180 181 189 195 198 194 188 187 188 196 200 205 224 226 220 224 226 231 236 232 240 256 263 281 290 295 303 308 314 314 313
173 153 155 155 149 160 151 148 159 159 142 143 151 145 131 141 146 113 57 86 83 83 109 116 200 178 297 324 71 118 148 155 154 148 141 140 133 122 125 133 150 163 171 171 169 170 172 170 172 177 174 171 175 185 188 190 197 200 202 206 203 201 203 206 211 217 229 241 241 239 244 248 251 245 243 254 261 265 269 276 284 291 297 298 298
158 150 158 160 152 160 163 156 159 154 141 142 148 151 159 175 172 151 171 172 144 93 116 171 200 137 278 277 30 76 132 132 148 150 146 142 136 125 123 127 139 155 164 168 167 170 176 175 175 181 179 176 183 193 197 197 203 206 207 212 214 214 218 216 220 230 232 239 246 248 253 256 256 250 248 253 261 265 267 274 279 285 291 293 293
155 158 157 157 161 163 162 163 165 165 173 163 158 225 208 184 222 172 162 182 126 127 147 177 215 197 251 286 334 88 145 124 116 140 145 137 131 129 127 127 134 147 158 165 169 171 175 180 178 179 182 183 188 194 200 203 205 210 215 218 220 219 222 223 227 234 239 244 247 249 249 253 258 256 255 257 264 271 275 281 285 288 291 292 294
167 170 166 165 173 169 163 173 176 172 180 166 166 230 223 184 223 188 149 191 173 131 134 141 140 177 197 288 298 54 126 115 90 118 138 135 128 128 127 127 131 139 150 158 165 171 175 180 179 178 183 186 191 195 199 204 207 210 216 220 223 224 225 227 233 236 242 248 250 255 255 255 260 262 263 265 269 273 276 281 285 290 293 293 294
176 176 175 178 184 177 176 188 176 168 196 195 194 228 212 193 214 219 176 205 193 155 156 144 128 147 179 270 283 57 76 108 101 108 126 129 126 124 125 128 139 144 141 142 149 162 170 171 172 176 181 185 193 199 202 206 208 208 214 220 219 221 228 232 237 239 242 248 249 254 260 259 258 260 265 269 274 277 278 280 281 284 288 292 294
179 181 178 181 193 176 173 185 170 180 219 210 207 224 208 203 203 209 218 199 183 170 161 142 127 147 185 217 199 77 106 115 113 113 113 116 119 119 117 119 139 153 144 134 133 141 149 155 165 170 173 180 188 195 203 208 207 209 212 219 218 215 223 230 235 240 243 247 247 250 256 258 258 258 261 266 272 275 274 275 275 276 278 284 289
181 184 177 177 198 190 183 194 188 198 223 208 219 227 210 213 203 194 203 190 188 144 129 132 134 152 194 216 195 51 116 123 93 102 114 115 117 115 116 126 145 157 155 152 140 133 136 143 154 159 159 166 177 189 203 209 207 210 212 217 223 223 225 231 237 243 246 250 252 252 252 255 261 263 262 264 269 272 272 272 272 274 274 277 283
183 185 182 177 192 204 198 201 200 200 205 214 234 235 216 216 205 190 195 193 216 123 121 131 144 160 183 218 216 359 78 150 119 105 132 136 129 134 131 138 155 155 148 148 146 135 131 140 145 147 152 153 163 176 187 196 197 201 208 216 227 231 230 235 242 246 250 254 255 256 256 257 264 269 269 268 271 273 274 275 273 271 270 271 276
185 187 189 183 188 206 214 204 197 197 201 218 232 236 223 209 203 214 216 200 178 113 121 147 155 155 158 148 181 322 35 124 152 126 126 129 134 151 139 139 155 157 148 136 135 136 127 136 141 138 146 152 155 159 162 170 180 189 195 208 222 229 231 234 240 246 253 258 256 256 259 262 266 270 270 270 271 271 272 273 274 275 274 272 274
189 192 194 189 189 204 222 214 196 203 212 220 234 240 228 212 209 218 216 205 176 142 141 166 155 130 145 147 154 203 37 103 165 147 132 136 142 153 141 133 135 142 148 135 120 120 117 127 138 137 139 144 146 149 159 166 171 177 183 196 209 213 217 223 229 237 249 258 259 258 261 264 266 266 266 268 270 271 271 271 272 275 277 276 277
193 196 198 196 191 195 214 210 197 210 220 223 233 236 224 205 202 212 200 207 183 156 165 171 150 147 165 162 150 169 179 162 181 161 147 148 152 158 148 139 135 131 141 139 122 116 118 124 134 141 137 133 137 144 150 156 166 172 177 190 194 193 199 206 211 213 222 233 235 240 248 254 257 259 264 268 269 271 275 276 274 271 274 278 283
196 197 199 201 197 196 210 212 202 211 224 226 227 223 216 203 202 213 198 200 202 165 174 183 173 181 181 161 152 165 174 185 207 185 158 154 159 165 151 135 143 144 136 135 129 124 126 126 124 133 133 125 130 138 140 139 154 167 173 187 186 175 165 162 165 152 142 144 150 166 185 212 234 248 263 275 283 287 290 293 289 282 284 288 290
198 198 199 202 202 201 210 218 212 208 220 229 230 223 218 212 207 209 194 194 206 177 186 205 204 174 159 148 149 149 141 219 232 216 168 165 172 159 140 123 131 142 138 134 133 129 130 129 121 128 136 130 128 131 147 156 153 155 162 180 180 165 152 150 145 131 125 122 119 127 135 139 154 159 100 70 59 29 2 1 10 354 333 321 316
199 199 200 203 204 205 209 218 215 205 213 226 228 224 219 213 205 206 201 190 192 185 194 215 243 79 123 199 193 144 93 227 240 241 181 169 172 154 136 135 128 114 124 133 134 128 127 130 126 132 142 143 136 127 151 169 161 159 161 168 175 173 165 156 145 133 125 116 107 104 100 92 85 80 73 69 67 60 52 47 43 36 17 4 360
201 201 202 204 207 209 207 213 217 210 213 223 223 219 220 215 201 201 204 185 181 186 185 205 234 80 94 348 195 125 141 193 218 248 219 191 163 150 138 141 131 97 104 122 134 136 129 123 122 125 133 144 154 138 139 151 160 172 176 165 169 179 172 156 148 136 123 117 109 98 90 82 75 70 64 56 50 45 40 37 36 32 22 15 10
203 204 204 205 210 210 205 210 217 217 217 219 221 216 218 216 199 197 204 192 181 185 179 168 167 168 138 42 234 4 171 181 196 244 259 330 129 148 152 143 135 122 122 132 150 151 138 119 123 126 127 141 155 140 123 128 151 169 180 176 168 173 166 153 149 135 120 111 95 83 70 68 68 64 60 51 45 38 31 25 21 16 11 7 4
202 205 205 207 211 209 208 210 213 220 221 212 213 217 216 215 203 197 199 193 182 194 192 158 155 202 213 190 224 272 171 169 166 109 200 356 107 150 157 142 136 141 156 175 176 159 141 131 134 136 136 151 161 152 148 166 193 192 184 185 180 174 165 156 154 143 132 116 86 69 51 45 45 44 45 40 36 31 24 19 12 5 0 355 352
202 205 206 206 210 212 211 210 210 219 228 220 211 213 215 210 200 193 190 189 180 199 218 161 160 185 185 194 220 242 246 188 96 113 133 5 70 167 154 147 144 153 179 204 193 167 147 145 148 142 141 158 170 171 174 185 200 204 190 183 184 181 176 171 168 160 146 135 105 77 58 46 36 31 28 21 19 11 6 3 359 356 352 347 343
202 206 208 207 209 212 210 210 211 212 221 229 218 210 212 202 193 188 186 189 184 194 212 176 178 180 168 191 223 155 190 242 111 114 80 48 220 270 151 150 147 157 201 212 186 179 166 154 161 165 162 159 169 183 192 189 193 196 189 182 185 185 185 185 183 184 182 173 172 139 77 57 36 22 10 3 358 352 350 349 347 344 342 340 338
202 205 208 208 208 210 209 209 211 208 211 221 217 210 211 203 196 191 187 189 188 193 196 188 201 182 166 183 211 196 187 231 234 154 114 47 261 246 185 170 156 163 203 209 174 177 173 160 169 183 180 163 164 179 185 197 217 211 195 189 193 194 193 197 197 199 203 203 206 212 230 250 278 305 317 323 322 325 328 328 330 330 331 331 329
200 204 207 207 208 209 209 208 209 209 209 213 212 209 209 206 203 196 193 193 189 190 192 195 209 180 168 179 196 203 191 214 226 182 170 176 209 241 199 177 160 161 180 204 181 171 168 173 193 190 182 173 170 178 182 201 223 225 215 212 214 209 207 209 210 214 215 217 222 226 238 249 262 277 285 296 301 304 308 309 311 311 312 314 314
198 203 205 205 206 207 208 209 209 210 211 212 210 208 208 208 206 199 196 195 189 187 186 192 205 201 190 183 189 207 207 209 223 211 199 182 180 251 226 137 130 151 168 190 192 184 173 183 208 195 189 186 184 192 195 198 212 226 229 234 239 228 224 225 222 227 229 230 236 239 249 257 263 273 279 288 293 295 299 300 299 299 299 298 299
199 202 204 203 205 206 206 207 209 210 210 211 210 207 207 208 207 201 197 196 191 189 185 184 197 208 210 192 187 209 212 207 223 225 207 169 163 273 232 178 157 151 165 181 191 209 205 204 221 212 198 194 192 197 196 198 217 234 235 234 241 238 235 237 236 240 241 243 249 251 258 264 268 274 280 287 292 294 296 295 294 292 291 291 291
203 204 204 203 205 208 208 206 208 210 209 210 211 208 206 206 206 201 199 200 195 194 190 185 193 205 216 211 195 208 214 205 217 231 213 175 180 225 220 247 233 160 165 179 189 212 219 214 219 218 208 203 196 194 197 208 228 240 240 234 236 241 243 246 247 250 251 252 256 258 263 270 275 281 285 290 293 295 294 293 292 292 291 292 292
207 207 205 203 205 207 209 208 207 208 208 209 210 208 205 204 203 201 201 201 196 196 193 188 196 203 213 223 217 219 219 204 203 224 227 191 186 207 204 206 253 160 154 176 192 211 226 228 221 215 209 202 195 195 203 220 237 244 242 233 237 250 252 254 255 257 258 257 259 261 265 271 277 283 288 292 295 295 294 294 295 296 297 296 296
209 209 205 204 205 204 206 208 207 207 208 208 207 205 205 204 203 201 201 200 197 198 196 192 199 204 208 220 226 229 227 214 205 212 227 213 189 199 201 195 209 182 148 180 196 209 227 243 226 201 196 196 198 203 207 215 233 245 238 229 237 252 255 258 259 260 262 260 259 261 263 269 275 280 286 290 292 292 292 296 298 299 301 302 301
209 208 207 207 205 203 204 205 206 206 207 208 206 204 204 204 204 204 202 201 200 200 199 198 200 206 209 213 222 231 233 228 218 207 214 218 194 190 197 201 207 210 175 183 197 204 215 230 219 188 194 205 208 213 217 220 228 238 242 239 240 247 254 258 259 260 261 260 260 261 261 265 270 275 282 285 286 286 289 293 296 299 300 302 304
209 207 206 207 207 205 204 202 205 206 205 207 207 205 205 204 205 208 206 202 202 203 202 202 204 207 211 211 216 227 232 229 222 213 209 213 207 194 195 202 209 218 221 192 203 210 204 215 223 202 196 204 211 214 217 222 229 233 241 247 244 244 250 253 257 259 259 261 262 260 259 261 265 270 276 279 279 282 287 291 294 296 298 302 305
211 209 205 205 206 206 205 203 204 205 205 206 208 206 205 205 205 209 210 204 202 205 204 204 208 210 213 214 214 220 225 220 216 218 215 211 208 204 201 206 209 216 226 222 205 218 211 218 231 208 192 197 205 210 211 218 228 231 233 238 236 238 245 247 252 255 256 260 260 257 256 257 262 267 269 272 276 280 284 289 291 293 297 302 306
210 209 206 204 204 205 205 204 204 204 205 205 207 206 205 206 207 207 210 207 203 205 206 204 208 211 214 218 216 215 217 218 215 214 215 211 205 205 206 210 212 214 221 225 221 224 222 226 223 191 194 204 203 207 213 215 223 231 234 236 233 236 244 245 248 253 253 255 256 254 255 256 260 263 266 269 274 279 282 285 287 290 294 300 303
209 209 209 206 204 204 204 204 204 204 205 204 205 206 205 207 209 208 209 209 206 206 206 205 207 210 214 218 220 216 212 214 216 211 212 213 206 206 208 211 214 214 216 221 226 230 229 230 219 193 199 208 200 201 208 211 221 230 234 237 234 235 243 246 249 252 251 253 255 254 254 257 261 264 269 274 278 281 282 282 283 286 289 293 296
209 209 210 208 206 204 203 205 205 204 205 205 204 206 207 207 207 208 209 209 207 206 207 207 208 209 212 216 220 218 212 212 215 212 211 212 207 206 210 212 214 214 214 216 220 227 231 228 224 218 215 207 198 201 208 213 223 229 232 237 237 237 242 245 249 254 254 255 257 257 258 261 266 271 274 279 283 285 284 280 279 280 283 287 289
209 209 210 208 206 205 205 205 206 206 206 206 206 206 208 209 208 207 208 209 209 208 208 209 209 208 211 214 216 217 213 211 213 213 211 211 209 207 209 212 214 214 215 215 215 221 228 228 226 224 225 227 216 209 211 215 222 229 234 238 236 236 238 237 241 252 259 260 257 255 257 261 267 273 278 282 285 287 284 280 276 276 280 283 285
208 209 209 208 207 206 206 206 206 207 207 207 207 207 208 210 210 209 208 208 209 210 209 210 210 209 210 212 214 214 213 213 213 213 212 212 211 209 208 211 213 213 215 216 215 217 223 229 229 224 226 232 231 222 218 218 222 227 233 236 235 234 237 238 241 248 255 258 255 251 255 263 267 270 277 282 284 284 283 279 276 275 276 279 284
208 207 208 208 207 206 206 207 207 208 208 208 208 208 209 211 212 211 210 209 209 210 211 211 211 211 211 212 212 211 211 212 213 213 213 213 213 212 210 211 212 212 213 215 215 215 218 226 229 228 227 228 227 225 222 219 220 224 230 236 238 238 241 243 243 249 254 252 250 252 256 260 263 267 274 281 283 282 281 278 274 273 275 279 284
208 207 207 207 207 208 208 208 209 209 209 209 209 209 210 211 212 212 212 211 211 212 213 213 213 213 213 213 213 211 211 211 212 214 214 214 214 214 212 212 212 211 211 214 213 211 215 222 227 230 229 225 222 220 219 218 221 226 227 230 235 239 244 244 241 245 256 256 252 255 258 256 258 265 273 278 281 282 281 278 274 273 275 280 284
207 207 206 206 207 209 209 209 210 210 209 210 210 210 210 211 212 212 212 212 212 212 214 214 215 216 215 215 215 213 213 212 213 214 215 214 215 215 214 212 210 209 210 212 211 207 209 216 223 228 230 228 224 222 221 222 224 227 230 232 234 232 233 239 241 240 248 258 257 262 268 265 263 266 271 274 279 280 280 278 273 273 275 277 279
207 208 208 206 206 208 210 210 210 211 210 209 210 210 210 211 212 212 212 212 212 213 214 215 216 217 218 218 217 217 217 216 215 215 215 214 213 215 215 213 211 209 208 209 210 209 207 209 214 220 224 226 223 223 224 220 216 220 229 237 241 234 229 234 241 241 242 247 252 262 269 262 256 261 268 274 278 276 273 274 276 277 274 269 269
207 210 211 210 207 207 209 210 210 211 212 211 210 210 210 210 212 213 212 213 213 213 213 215 216 217 218 218 219 219 219 219 219 218 217 217 214 214 214 212 211 210 208 208 208 208 208 209 211 213 216 219 220 219 217 213 212 218 224 229 236 242 238 232 235 240 241 243 248 256 260 253 251 261 268 272 279 279 276 280 284 281 274 267 266
208 210 212 214 212 208 207 209 210 211 213 213 212 211 210 210 211 213 213 214 214 214 214 214 215 216 217 218 220 220 219 220 220 220 220 220 218 216 214 212 211 209 208 207 207 207 207 208 210 209 209 214 217 216 215 215 217 218 218 217 223 232 236 230 233 239 239 238 242 248 252 251 253 261 266 272 281 285 282 281 279 273 265 259 259
209 209 210 213 215 212 208 208 210 211 213 215 214 213 212 212 211 212 214 214 214 216 216 215 215 216 217 218 220 221 220 219 220 220 221 221 220 219 217 215 214 212 209 208 207 207 207 208 210 209 210 213 216 218 219 219 217 217 217 218 218 218 216 218 228 239 237 234 236 242 248 251 254 257 262 269 277 278 278 275 269 256 246 248 260
210 209 210 211 215 216 212 208 209 212 215 216 216 214 214 213 213 212 214 215 215 216 217 218 218 218 218 219 221 222 221 221 221 220 220 222 222 220 217 217 218 217 215 213 211 208 207 209 210 210 211 213 214 218 219 215 215 218 219 217 213 209 208 212 220 231 235 229 227 234 246 254 258 259 263 270 272 267 268 268 264 259 266 279 289
209 209 210 211 213 216 216 212 210 213 216 216 216 216 215 215 214 213 213 215 216 218 219 220 220 220 220 220 221 222 223 223 222 221 220 220 222 221 218 217 219 220 220 219 217 214 212 212 212 212 213 213 214 218 220 217 216 218 216 210 205 205 210 212 215 225 230 224 221 228 243 251 251 251 258 267 270 267 264 261 265 277 283 285 290
209 210 211 211 212 214 217 217 214 214 216 217 217 217 216 216 216 215 214 215 217 219 221 221 221 222 222 221 221 222 223 223 223 221 220 219 220 220 218 217 218 220 221 221 220 219 218 217 217 216 215 215 217 220 220 220 219 218 215 207 200 202 210 213 218 226 228 230 233 234 239 243 240 241 252 257 260 267 271 268 269 274 276 282 294
210 211 211 212 213 214 216 218 219 219 218 218 218 218 218 218 217 216 216 216 218 220 222 222 222 223 223 223 223 223 223 223 223 221 219 218 218 218 217 217 218 220 221 222 220 219 219 220 220 221 220 219 221 222 221 220 220 218 211 203 200 204 210 213 217 221 225 236 240 231 228 235 230 229 245 254 252 262 278 278 268 266 280 291 293
212 213 213 214 215 216 216 218 222 224 222 220 220 220 220 220 218 217 217 217 219 221 222 222 223 224 225 225 225 226 225 224 224 224 220 216 216 216 216 216 218 219 222 224 223 220 221 221 221 222 222 221 222 223 223 219 215 211 202 192 193 197 195 194 202 214 230 244 239 223 218 224 220 220 237 248 249 258 275 281 279 282 285 280 277
213 213 215 216 217 218 218 218 221 225 226 224 223 223 222 220 218 217 217 218 221 224 224 223 223 224 225 226 225 226 227 226 226 226 222 216 214 215 215 216 216 218 222 226 225 222 223 223 223 223 222 221 221 221 220 218 214 209 201 190 187 189 187 187 199 220 236 245 233 216 213 214 209 212 227 242 249 253 263 273 276 275 272 264 272
215 215 216 218 219 220 221 221 222 226 228 228 229 228 226 222 219 218 217 217 221 226 227 226 226 226 227 227 226 226 227 227 226 227 223 216 213 214 216 216 216 217 221 224 223 222 223 223 223 224 223 224 224 221 218 219 217 212 206 198 191 190 191 193 205 223 235 240 221 204 203 204 199 200 213 235 252 257 266 276 273 265 263 272 282
216 217 217 219 221 222 223 224 226 228 229 230 233 233 231 227 222 219 217 217 221 226 228 228 230 230 230 230 228 227 228 228 226 226 225 219 214 214 216 216 215 218 221 220 218 219 219 218 219 222 222 223 224 222 221 222 219 215 212 206 196 194 196 198 203 213 224 230 209 195 193 194 194 197 207 223 244 258 259 261 265 269 271 272 270